Terminal Aerodrome Forecast
Issued by NWS

Home | Current Version | Previous Version | Text Only | Print | Product List | Glossary On
Versions: 1 2 3 4 5 6 7 8 9 10 11 12 13 14 15 16 17 18 19 20
000
FTUS43 KGRR 301740
TAFMKG
TAF
KMKG 301740Z 3018/0118 05011G18KT P6SM OVC011
     FM301900 06010G20KT 4SM -DZ OVC009
      TEMPO 3019/3023 2SM -RA BR OVC004
     FM302300 05012KT P6SM OVC015
     FM010100 05010G17KT 4SM -RA BR OVC007
     FM010500 06011G17KT P6SM OVC007
     FM010600 06010KT P6SM OVC007
     FM011000 06008KT 4SM -RA BR OVC007=

USA.gov is the U.S. government's official web portal to all federal, state and local government web resources and services.